This is the latest recevied weather packets stored in our database for station/object KE2HEH. If no packets are shown the sender has not sent any weather packets the latest 10 day(s).
| Time | Temp. | Humidity | Pressure | Rain* | Wind** | Luminosity | Snow |
|---|---|---|---|---|---|---|---|
| 1777719666 | 10.56° C | 92% | 1012.3 hPa | 0 mm | - | 17 W/m² | - |
| 1777719363 | 10.56° C | 92% | 1012.5 hPa | 0 mm | - | 8 W/m² | - |
| 1777719060 | 10.56° C | 92% | 1012.3 hPa | 0 mm | - | 7 W/m² | - |
| 1777718757 | 10.56° C | 92% | 1012.2 hPa | 0 mm | - | 9 W/m² | - |
| 1777718454 | 10.56° C | 91% | 1012.3 hPa | 1.27 mm | - | 3 W/m² | - |
| 1777718152 | 10.56° C | 91% | 1012.3 hPa | 1.27 mm | - | 5 W/m² | - |
| 1777717850 | 10.56° C | 91% | 1012.5 hPa | 0 mm | - | 3 W/m² | - |
| 1777717545 | 10.56° C | 91% | 1012.5 hPa | 0 mm | - | 1 W/m² | - |
| 1777717243 | 10.56° C | 90% | 1012.7 hPa | 0 mm | - | 1 W/m² | - |
| 1777716941 | 10.56° C | 90% | 1012.6 hPa | 0 mm | - | 1 W/m² | - |
| 1777716639 | 10.56° C | 90% | 1012.6 hPa | 0 mm | - | 3 W/m² | - |
| 1777716337 | 10.56° C | 90% | 1012.6 hPa | 0 mm | - | 3 W/m² | - |
| 1777716035 | 10.56° C | 90% | 1012.5 hPa | 0 mm | - | 1 W/m² | - |
| 1777715732 | 10.56° C | 90% | 1012.7 hPa | 0 mm | - | 0 W/m² | - |
| 1777715430 | 10.56° C | 90% | 1012.7 hPa | 0 mm | - | 0 W/m² | - |
| 1777715127 | 10.56° C | 90% | 1012.7 hPa | 0 mm | - | 0 W/m² | - |
| 1777714826 | 10.56° C | 90% | 1012.5 hPa | 0 mm | - | 0 W/m² | - |
| 1777714524 | 10.56° C | 90% | 1012.6 hPa | 0 mm | - | 0 W/m² | - |
| 1777714221 | 10.56° C | 90% | 1012.4 hPa | 0 mm | - | 0 W/m² | - |
| 1777713918 | 10.56° C | 90% | 1012.4 hPa | 0 mm | - | 0 W/m² | - |
| 1777713616 | 10.56° C | 90% | 1012.5 hPa | 0 mm | - | 0 W/m² | - |
| 1777713312 | 10.56° C | 90% | 1012.2 hPa | 0 mm | - | 0 W/m² | - |
| 1777713009 | 10.56° C | 90% | 1012.4 hPa | 0 mm | - | 0 W/m² | - |
| 1777712706 | 10.56° C | 89% | 1012.4 hPa | 0 mm | - | 0 W/m² | - |
| 1777712403 | 10.56° C | 90% | 1012.4 hPa | 0 mm | - | 0 W/m² | - |
* Rain latest hour (hover to see other rain measurements)
** Current wind speed in m/s (hover to see current wind gust speed)